Victoria International

Airport
ICAO code: 
CYYJ
Summary
ICAO Region: 
NAM
Territory: 
Location: 
North Saanich, British Columbia,
Coordinates: 
Aerial View: 
48° 38' 48.841" N, 123° 25' 33.609" W
Metar
Observation
CYYJ 190800Z 00000KT 3SM -DZ BR FEW002 BKN007 BKN027 OVC048 06/06 A3022 RMK SF2ST4SC1SC1 SLP235
Station
Victoria Int. Airport, B. C.
Date/Time
2022-01-19 08:00:00
Wind direction
Wind speed
00 kts
Lowest cloud amount
few clouds
Temperature
6°C
Dew point
6°C
Humidity
100%
Weather condition
light

Description

Victoria International Airport serves Victoria, British Columbia, Canada. It is 12 nm north northwest of the city, in North Saanich, quite close to the town of Sidney on the Saanich Peninsula.

Climatology

Temperate Marine climate/Oceanic climate (Köppen climate classification Cfb). Moderately cool summer and comparatively warm winter.

Runways

Designator Length Width Surface Rops
13/31 1525 61 ASP Yes/Yes
2/20 1532 61 ASP Yes/Yes
9/27 2134 61 ASP Yes/Yes
Airport map: 
Aerial View: 

SKYbrary Partners:

Safety knowledge contributed by: